(14198) = 1970 PV = 1977 DQ1 = 1979 QC6 = 1998 XZ73 = 1999 BC17

Discovered at Socorro on 1998-12-14 by LINEAR.

Orbit

Orbit type: Main Belt

Note: WebGL enabled browser required.

epoch2024-03-31.0
epoch JD2460400.5
perihelion date2020-06-28.13222
perihelion JD2459028.63222
argument of perihelion (°)9.19038
ascending node (°)352.08802
inclination (°)6.66514
eccentricity0.1378451
perihelion distance (AU)2.3525961
Tisserand w.r.t. Jupiter3.3
ΔV w.r.t. Earth (km/sec)9.8
semimajor axis (AU)2.7287394
mean anomaly (°)299.96668
mean daily motion (°/day)0.21865570
aphelion distance (AU)3.105
period (years)4.51
P-vector [x]0.99960251
P-vector [y]0.01211449
P-vector [z]0.02545715
Q-vector [x]-0.02322865
Q-vector [y]0.86561475
Q-vector [z]0.50017150
absolute magnitude12.8
phase slope0.15
uncertainty0
referenceMPEC 2024-F07
observations used3963
oppositions22
arc length (days)19576
first opposition used1970
last opposition used2024
residual rms (arc-secs)0.49
perturbers coarse indicatorM-v
perturbers precise indicator003Ek
first observation date used1970-08-10.0
last observation date used2024-03-16.0
computer nameMPCLINUX
JD of orbit computation2456819.431187
perihelion JD uncertainty (days)5.6758E-05
argument of perihelion uncertainty (°)2.7606E-05
ascending node uncertainty (°)2.5460E-05
inclination uncertainty (°)4.1551E-06
eccentricity uncertainty 3.7924E-08
perihelion distance uncertainty (AU)1.0440E-07
Minimum Orbit Intersection Distances (in AU)
for orbit epoch: 2460400.5, reference: E2024-G02
Mercury1.98541
Venus1.62889
Earth1.34962
Mars0.95877
Jupiter2.33279
Saturn6.2203
Uranus15.3464
Neptune27.3361

Observations

4011 total observations over interval: 1970 08 10.93812 – 2024 03 16.407537
These data are available for download (format description).

Date (UT) J2000 RA J2000 Dec Magn Location Ref
1970 08 10.93812 22 45 41.71 -12 41 39.5 16.5   095 – Crimea-Nauchnyi MPC 3240
1970 08 28.93281 22 30 18.00 -13 17 28.8 16.5   095 – Crimea-Nauchnyi MPC 3240
1977 02 18.55569 10 04 35.02 +16 14 04.1 18.4   381 – Tokyo-Kiso MPC 5583
1977 02 18.59487 10 04 32.92 +16 14 11.5 18.4   381 – Tokyo-Kiso MPC 5583
1977 02 19.49596 10 03 42.51 +16 17 01.8 18.3   381 – Tokyo-Kiso MPC 5583
1977 02 19.53208 10 03 40.40 +16 17 08.1 18.3   381 – Tokyo-Kiso MPC 5583
1979 08 19.95310 22 33 01.88 -13 43 03.1 16.8   095 – Crimea-Nauchnyi MPC 6029
1998 12 14.45053 07 14 24.33 +32 12 56.5 17.5   704 – Lincoln Laboratory ETS, New Mexico MPS 3454
1998 12 14.47238 07 14 23.11 +32 12 59.5 17.8   704 – Lincoln Laboratory ETS, New Mexico MPS 3454
1998 12 14.49429 07 14 21.97 +32 13 01.8 18.0   704 – Lincoln Laboratory ETS, New Mexico MPS 3454
1998 12 14.51612 07 14 20.72 +32 13 04.8   704 – Lincoln Laboratory ETS, New Mexico MPS 3454
1998 12 14.53795 07 14 19.59 +32 13 08.7   704 – Lincoln Laboratory ETS, New Mexico MPS 3454
1998 12 17.41595 07 11 39.86 +32 19 59.4 18.1   704 – Lincoln Laboratory ETS, New Mexico MPS 3454
1998 12 17.43869 07 11 38.52 +32 20 02.6   704 – Lincoln Laboratory ETS, New Mexico MPS 3454
1998 12 17.46135 07 11 37.15 +32 20 04.9   704 – Lincoln Laboratory ETS, New Mexico MPS 3454
1998 12 17.48411 07 11 35.89 +32 20 05.5 19.0   704 – Lincoln Laboratory ETS, New Mexico MPS 3454
1998 12 17.50736 07 11 34.52 +32 20 10.7 18.6   704 – Lincoln Laboratory ETS, New Mexico MPS 3454
1999 01 16.19645 06 39 55.05 +32 35 41.6 18.1   704 – Lincoln Laboratory ETS, New Mexico MPS 3705
1999 01 16.21842 06 39 53.67 +32 35 41.4   704 – Lincoln Laboratory ETS, New Mexico MPS 3705
1999 01 16.24040 06 39 52.38 +32 35 39.3 18.5   704 – Lincoln Laboratory ETS, New Mexico MPS 3705
1999 01 16.26247 06 39 51.06 +32 35 37.7 18.5   704 – Lincoln Laboratory ETS, New Mexico MPS 3705
1999 01 19.12078 06 37 08.34 +32 31 10.8 18.0   704 – Lincoln Laboratory ETS, New Mexico MPS 3705
1999 01 19.14273 06 37 07.26 +32 31 09.4 18.0   704 – Lincoln Laboratory ETS, New Mexico MPS 3705
1999 01 19.16468 06 37 05.94 +32 31 08.2 17.5   704 – Lincoln Laboratory ETS, New Mexico MPS 3705
1999 01 19.18665 06 37 04.66 +32 31 05.1 17.1   704 – Lincoln Laboratory ETS, New Mexico MPS 3705
1999 04 06.12963 06 47 13.12 +28 25 45.7 18.6   704 – Lincoln Laboratory ETS, New Mexico MPS 4489
1999 04 06.14102 06 47 13.64 +28 25 43.4 18.6   704 – Lincoln Laboratory ETS, New Mexico MPS 4489
1999 04 06.15236 06 47 14.32 +28 25 38.8 18.9   704 – Lincoln Laboratory ETS, New Mexico MPS 4489
1999 04 06.16357 06 47 15.00 +28 25 38.7 18.9   704 – Lincoln Laboratory ETS, New Mexico MPS 4489
2000 01 11.48946 12 31 34.01 -03 06 34.6 17.8 R 699 – Lowell Observatory-LONEOS MPS 8501
2000 01 11.50983 12 31 34.37 -03 06 39.2   699 – Lowell Observatory-LONEOS MPS 8501
2000 01 11.53022 12 31 34.72 -03 06 43.7   699 – Lowell Observatory-LONEOS MPS 8501
2000 02 08.40906 12 33 05.89 -03 59 58.5 17.6   704 – Lincoln Laboratory ETS, New Mexico MPS 9919
2000 02 08.42584 12 33 05.58 -03 59 58.0 18.7   704 – Lincoln Laboratory ETS, New Mexico MPS 9919
2000 02 08.44265 12 33 05.29 -04 00 00.0 19.0   704 – Lincoln Laboratory ETS, New Mexico MPS 9919
2000 02 08.45955 12 33 05.01 -03 59 59.7 18.5   704 – Lincoln Laboratory ETS, New Mexico MPS 9919
2000 02 08.47637 12 33 04.70 -03 59 59.9 18.5   704 – Lincoln Laboratory ETS, New Mexico MPS 9919
2000 02 25.48415 12 25 40.99 -03 44 32.8 17.0 V 691 – Steward Observatory, Kitt Peak-Spacewatch MPS 10824
2000 02 25.49708 12 25 40.51 -03 44 31.3 17.0 V 691 – Steward Observatory, Kitt Peak-Spacewatch MPS 10824
2000 02 25.50861 12 25 40.08 -03 44 30.0 17.0 V 691 – Steward Observatory, Kitt Peak-Spacewatch MPS 10824
2000 03 08.34054 12 17 20.17 -03 14 14.8 17.2   704 – Lincoln Laboratory ETS, New Mexico MPS 10824
2000 03 08.35425 12 17 19.52 -03 14 11.7 17.6   704 – Lincoln Laboratory ETS, New Mexico MPS 10824
2000 03 08.38157 12 17 18.16 -03 14 06.9 17.5   704 – Lincoln Laboratory ETS, New Mexico MPS 10824
2000 03 08.39508 12 17 17.47 -03 14 04.6 17.3   704 – Lincoln Laboratory ETS, New Mexico MPS 10824
2000 03 10.38270 12 15 42.27 -03 07 43.1 18.3   704 – Lincoln Laboratory ETS, New Mexico MPS 10824
2000 03 10.39532 12 15 41.57 -03 07 42.4 17.5   704 – Lincoln Laboratory ETS, New Mexico MPS 10824
2000 03 10.40853 12 15 40.91 -03 07 40.2 17.3   704 – Lincoln Laboratory ETS, New Mexico MPS 10824
2000 03 10.42890 12 15 39.94 -03 07 35.9 17.6   704 – Lincoln Laboratory ETS, New Mexico MPS 10824
2000 03 10.44151 12 15 39.29 -03 07 33.3 17.6   704 – Lincoln Laboratory ETS, New Mexico MPS 10824
2000 03 11.38335 12 14 53.33 -03 04 28.0 17.2   704 – Lincoln Laboratory ETS, New Mexico MPS 10824
2000 03 11.39820 12 14 52.59 -03 04 24.9 17.0   704 – Lincoln Laboratory ETS, New Mexico MPS 10824
2000 03 11.41461 12 14 51.78 -03 04 21.5 17.1   704 – Lincoln Laboratory ETS, New Mexico MPS 10824
2000 03 11.42737 12 14 51.12 -03 04 18.8 17.1   704 – Lincoln Laboratory ETS, New Mexico MPS 10824
2000 03 11.44605 12 14 50.20 -03 04 14.9 17.3   704 – Lincoln Laboratory ETS, New Mexico MPS 10824
2000 03 14.63212 12 12 11.03 -02 53 21.2 17.7   608 – Haleakala-AMOS MPS 10824
2000 03 14.64308 12 12 10.51 -02 53 18.0 17.8   608 – Haleakala-AMOS MPS 10824
2000 03 14.65357 12 12 09.93 -02 53 16.9 18.1   608 – Haleakala-AMOS MPS 10824
2000 03 26.33668 12 02 05.85 -02 09 51.8 17.0 R 699 – Lowell Observatory-LONEOS MPS 13426
2000 03 26.35724 12 02 04.75 -02 09 47.3   699 – Lowell Observatory-LONEOS MPS 13426
2000 03 26.37785 12 02 03.67 -02 09 42.7   699 – Lowell Observatory-LONEOS MPS 13426
2000 03 26.39846 12 02 02.58 -02 09 37.8   699 – Lowell Observatory-LONEOS MPS 13426
2000 04 04.09002 11 54 46.440 -01 37 03.11 15.74 J I02 – Cerro Tololo Observatory, La Serena--2MASS MPS 80695
2000 04 04.31261 11 54 35.59 -01 36 19.2 16.8   704 – Lincoln Laboratory ETS, New Mexico MPS 13426
2000 04 04.32692 11 54 34.88 -01 36 16.3 16.9   704 – Lincoln Laboratory ETS, New Mexico MPS 13426
2000 04 04.34123 11 54 34.21 -01 36 13.1 17.1   704 – Lincoln Laboratory ETS, New Mexico MPS 13426
2000 04 04.35555 11 54 33.49 -01 36 09.7 17.0   704 – Lincoln Laboratory ETS, New Mexico MPS 13426
2000 04 04.36986 11 54 32.84 -01 36 05.7 17.2   704 – Lincoln Laboratory ETS, New Mexico MPS 13426
2000 04 05.19757 11 53 53.60 -01 33 09.4 17.8   704 – Lincoln Laboratory ETS, New Mexico MPS 13426
2000 04 05.21214 11 53 52.90 -01 33 06.2 17.8   704 – Lincoln Laboratory ETS, New Mexico MPS 13426
2000 04 05.22672 11 53 52.18 -01 33 03.5 17.9   704 – Lincoln Laboratory ETS, New Mexico MPS 13426
2000 04 05.24132 11 53 51.50 -01 33 00.2 17.9   704 – Lincoln Laboratory ETS, New Mexico MPS 13426
2000 04 05.25590 11 53 50.74 -01 32 57.3 17.9   704 – Lincoln Laboratory ETS, New Mexico MPS 13426
2000 04 06.19671 11 53 06.65 -01 29 37.4 17.9   704 – Lincoln Laboratory ETS, New Mexico MPS 13426
2000 04 06.21074 11 53 05.93 -01 29 34.5 17.8   704 – Lincoln Laboratory ETS, New Mexico MPS 13426
2000 04 06.22478 11 53 05.26 -01 29 31.7 17.7   704 – Lincoln Laboratory ETS, New Mexico MPS 13426
2000 04 06.23884 11 53 04.60 -01 29 28.9 18.3   704 – Lincoln Laboratory ETS, New Mexico MPS 13426
2000 04 06.25288 11 53 03.92 -01 29 25.6 18.3   704 – Lincoln Laboratory ETS, New Mexico MPS 13426
2000 04 07.19449 11 52 20.41 -01 26 10.2 17.6   704 – Lincoln Laboratory ETS, New Mexico MPS 13426
2000 04 07.20860 11 52 19.72 -01 26 06.7 17.5   704 – Lincoln Laboratory ETS, New Mexico MPS 13426
2000 04 07.22271 11 52 19.05 -01 26 03.6 17.9   704 – Lincoln Laboratory ETS, New Mexico MPS 13426
2000 04 07.23685 11 52 18.40 -01 26 00.4 17.4   704 – Lincoln Laboratory ETS, New Mexico MPS 13426
2000 04 07.25098 11 52 17.79 -01 25 57.4 18.2   704 – Lincoln Laboratory ETS, New Mexico MPS 13426
2000 04 08.19267 11 51 34.91 -01 22 44.4 17.7   704 – Lincoln Laboratory ETS, New Mexico MPS 13426
2000 04 08.19276 11 51 34.94 -01 22 44.4 17.2   704 – Lincoln Laboratory ETS, New Mexico MPS 13426
2000 04 08.20648 11 51 34.31 -01 22 41.7 17.8   704 – Lincoln Laboratory ETS, New Mexico MPS 13426
